Tracking 29892 objects as of 21-Nov-2024
HD Live streaming from Space Station
objects crossing your sky now

ONEWEB-0231

Track ONEWEB-0231 now!
10-day predictions
ONEWEB-0231 is classified as:


NORAD ID: 48782
Int'l Code: 2021-045R
Perigee: 1,207.5 km
Apogee: 1,210.3 km
Inclination: 87.9 °
Period: 109.5 minutes
Semi major axis: 7579 km
RCS: Unknown
Launch date: May 28, 2021
Source: United Kingdom (UK)
Launch site: VOSTOCHNY COSMODROME (VOSTO)
Your satellite tracking list
Your tracking list is empty




NASA's NSSDC Master Catalog

Two Line Element Set (TLE):
1 48782U 21045R   24325.57523150  .00000116  00000-0  27540-3 0  9994
2 48782  87.9101  13.4282 0001887  88.3116 271.8231 13.15546653168927
Source of the keplerian elements: AFSPC